{"data":{"norad_id":58008,"intl_designator":"2023-153T","name":"STARLINK-30522","alt_names":[],"object_type":"PAYLOAD","status":"ACTIVE","operator":null,"country":"US","launch_date":"2023-10-05","launch_site_code":"AFETR","launch_vehicle":null,"mission":null,"orbit_class":"UNKNOWN","rcs_meters":null,"size_class":null,"mass_kg":null,"dimensions":null,"purposes":["comms"],"wikipedia_slug":null,"has_3d_model":false,"image_url":null,"decayed_at":null,"tle_current":{"epoch":"2026-05-24T22:27:03.438144Z","epoch_age_seconds":90836,"freshness":"FRESH","line1":"1 58008U 23153T   26144.93545646  .00001875  00000+0  77634-4 0  9995","line2":"2 58008  43.0016 356.7457 0001584 259.9488 100.1185 15.27579552146552","mean_motion":15.27579552,"eccentricity":0.0001584,"inclination_deg":43.0016,"raan_deg":356.7457,"arg_perigee_deg":259.9488,"mean_anomaly_deg":100.1185,"bstar":7.7634e-5,"rev_number":14655,"period_min":94.266776359677,"perigee_km":481.96362542304,"apogee_km":484.13724960325,"semimajor_km":6861.1874375131,"source":"CELESTRAK","updated_at":"2026-05-25T13:38:18.492799Z"}}}